{"data":{"norad_id":54374,"epoch":"2026-05-25T04:35:51.508896Z","epoch_age_seconds":51759,"freshness":"FRESH","line1":"1 54374U 22160C   26145.19156839  .00004779  00000+0  21378-3 0  9994","line2":"2 54374  34.9912 149.9902 0009230 303.9909  55.9927 15.20661451194220","mean_motion":15.20661451,"eccentricity":0.000923,"inclination_deg":34.9912,"raan_deg":149.9902,"arg_perigee_deg":303.9909,"mean_anomaly_deg":55.9927,"bstar":0.00021378,"rev_number":19422,"period_min":94.695633867291,"perigee_km":497.49215766837,"apogee_km":510.1962950122,"semimajor_km":6881.9812263403,"source":"CELESTRAK","updated_at":"2026-05-25T13:37:58.667365Z"}}